Probability
0 0 0 0 0 0 0 0 0 0 0 0 0 0 0 0 0 0 0 0 0 0 0 0 0 0 0 0 0 0 0 0 0 0 0 0 0 0 0 0 0 0 0 0
0 0 0 0 0 0 0 0 0 0 0 0 0 0 0 0 0 0 0 0 0 0 0 0 0 0 0 0 0 0 0 0 0 0 0 0 0 0 0 0 0 0 0 0
0 0 0 0 0 0 0 0 0 0 0 0 0 0 0 0 0 0 0 0 0 0 0 0 0 0 0 0 0 0 0 0 0 0 0 0 0 0 0 0 0 0 0 0
0 0 0 0 0 0 0 0 0 0 0 0 0 0 0 0 0 0 0 0 0 0 0 0 0 0 0 0 0 0 0 0 0 0 0 0 0 0 0 0 0 0 0 0
0 0 0 0 0 0 0 0 0 0 0 0 0 0 0 0 0 0 0 0 0 0 0 0 0 0 0 0 0 0 0 0 0 0 0 0 0 0 0 0 0 0 0 0
0 0 0 0 0 0 0 0 0 0 0 0 0 0 0 0 0 0 0 0 0 0 0 0 0 0 0 0 0 0 0 0 0 0 0 0 0 0 0 0 0 0 0 0
0 0 0 0 0 0 0 0 0 0 0 0 0 0 0 0 0 0 0 0 0 0 0 0 0 0 0 0 0 0 0 0 0 0 0 0 0 0 0 0 0 0 0 0
0 0 0 0 0 0 0 0 0 0 0 0 0 0 0 0 0 0 0 0 0 0 0 0 0 0 0 0 0 0 0 0 0 0 0 0 0 0 0 0 0 0 0 0
0 0 0 0 0 0 0 0 0 0 0 0 0 0 0 0 0 0 0 0 0 0 0 0 0 0 0 0 0 0 0 0 0 0 0 0 0 0 0 0 0 0 0 0
0 0 0 0 0 0 0 0 0 0 0 0 0 0 0 0 0 0 0 0 0 0 0 0 0 0 0 0 0 0 0 0 0 0 0 0 0 0 0 0 0 0 0 0
0 0 0 0 0 0 0 0 0 0 0 0 0 0 0 0 0 0 0 0 0 0 0 0 0 0 0 0 0 0 0 0 0 0 0 0 0 0 0 0 0 0 0 0
0 0 0 0 0 0 0 0 0 0 0 0 0 0 0 0 0 0 0 0 0 0 0 0 0 0 0 0 0 0 0 0 0 0 0 0 0 0 0 0 0 0 0 0
0 0 0 0 0 0 0 0 0 0 0 0 0 0 0 0 0 0 0 0 0 0 0 0 0 0 0 0 0 0 0 0 0 0 0 0 0 0 0 0 0 0 0 0
0 0 0 0 0 0 0 0 0 0 0 0 0 0 0 0 0 0 0 0 0 0 0 0 0 0 0 0 0 0 0 0 0 0 0 0 0 0 0 0 0 0 0 0
0 0 0 0 0 0 0 0 0 0 0 0 0 0 0 0 0 0 0 0 0 0 0 0 0 0 0 0 0 0 0 0 0 0 0 0 0 0 0 0 0 0 0 0
0 0 0 0 0 0 0 0 0 0 0 0 0 0 0 0 0 0 0 0 0 0 0 0 0 0 0 0 0 0 0 0 0 0 0 0 0 0 0 0 0 0 0 0
0 0 0 0 0 0 0 0 0 0 0 0 0 0 0 0 0 0 0 0 0 0 0 0 0 0 0 0 0 0 0 0 0 0 0 0 0 0 0 0 0 0 0 0
0 0 0 0 0 0 0 0 0 0 0 0 0 0 0 0 0 0 0 0 0 0 0 0 0 0 0 0 0 0 0 0 0 0 0 0 0 0 0 0 0 0 0 0
0 0 0 0 0 0 0 0 0 0 0 0 0 0 0 0 0 0 0 0 0 0 0 0 0 0 0 0 0 0 0 0 0 0 0 0 0 0 0 0 0 0 0 0
0 0 0 0 0 0 0 0 0 0 0 0 0 0 0 0 0 0 0 0 0 0 0 0 0 0 0 0 0 0 0 0 0 0 0 0 0 0 0 0 0 0 0 0
0 0 0 0 0 0 0 0 0 0 0 0 0 0 0 0 0 0 0 0 0 0 0 0 0 0 0 0 0 0 0 0 0 0 0 0 0 0 0 0 0 0 0 0
0 0 0 0 0 0 0 0 0 0 0 0 0 0 0 0 0 0 0 0 0 0 0 0 0 0 0 0 0 0 0 0 0 0 0 0 0 0 0 0 0 0 0 0
0 0 0 0 0 0 0 0 0 0 0 0 0 0 0 0 0 0 0 0 0 0 0 0 0 0 0 0 0 0 0 0 0 0 0 0 0 0 0 0 0 0 0 0
0 0 0 0 0 0 0 0 0 0 0 0 0 0 0 0 0 0 0 0 0 0 0 0 0 0 0 0 0 0 0 0 0 0 0 0 0 0 0 0 0 0 0 0
0 0 0 0 0 0 0 0 0 0 0 0 0 0 0 0 0 0 0 0 0 0 0 0 0 0 0 0 0 0 0 0 0 0 0 0 0 0 0 0 0 0 0 0
0 0 0 0 0 0 0 0 0 0 0 0 0 0 0 0 0 0 0 0 0 0 0 0 0 0 0 0 0 0 0 0 0 0 0 0 0 0 0 0 0 0 0 0
Wind_Speed
6 5 8 10 13 12 10 11 13 12 11 11 12 11 8 8 12 14 10 3 5 13 16 17 18 17 16 16 15 13 10 6 4 3 2 1 1 1 1 1 3 4 5 6
4 10 12 9 8 7 8 11 13 11 8 7 9 11 11 12 13 12 6 4 11 14 16 17 17 16 16 15 15 14 13 10 7 3 2 2 1 1 1 1 2 3 4 5
10 5 2 4 7 9 11 11 10 10 9 6 10 9 8 6 7 1 10 14 16 16 16 15 16 15 14 15 15 13 14 14 12 8 4 3 3 3 3 3 2 3 4 4
9 5 3 6 9 9 10 6 5 6 5 4 4 7 5 9 1 10 12 15 15 14 14 13 13 13 13 12 11 12 13 13 13 11 8 6 4 3 3 3 2 2 4 5
4 5 3 5 6 6 4 2 3 5 6 6 6 8 7 7 8 10 12 13 12 12 12 12 11 11 10 10 9 9 11 12 12 12 11 9 7 5 4 5 5 4 3 4
6 1 3 3 1 1 2 2 7 7 2 5 6 6 5 2 11 11 11 11 10 10 10 9 8 8 8 8 9 9 10 11 11 11 10 10 9 8 7 7 6 5 3 3
6 6 4 1 2 2 2 1 3 3 3 6 2 2 3 4 11 14 14 11 9 8 8 7 7 7 7 8 8 8 9 10 10 10 10 9 9 9 8 7 6 7 5 4
4 4 7 5 4 2 4 3 3 4 5 4 5 6 3 7 11 14 13 11 9 7 6 6 5 5 5 6 6 6 7 8 9 9 8 8 8 6 5 7 6 6 5 6
4 2 4 3 0 1 2 3 1 2 4 5 7 5 3 7 11 11 11 9 7 6 5 5 4 4 5 5 5 5 5 6 7 7 7 7 8 8 8 8 7 6 6 7
1 4 1 2 1 2 2 1 2 3 4 6 7 7 5 9 10 9 8 6 5 4 4 4 4 4 4 4 4 5 5 5 5 5 5 6 5 6 6 6 7 8 8 9
1 2 3 2 6 5 5 4 5 4 5 5 5 5 4 8 9 8 6 5 4 3 2 2 3 3 4 4 5 5 5 5 5 5 5 5 4 5 5 5 6 7 7 8
4 3 5 6 6 5 6 7 7 7 7 6 6 5 5 8 7 6 5 4 3 1 1 2 2 3 3 4 4 5 4 4 4 4 4 5 5 4 5 5 6 6 7 8
4 4 3 5 4 1 1 0 1 1 3 5 8 6 3 4 4 5 4 3 2 1 1 1 1 1 2 3 3 4 4 4 4 4 5 5 6 5 6 6 6 6 7 8
2 4 7 8 5 2 3 5 5 4 5 7 10 11 10 8 5 2 3 2 1 1 2 2 2 1 2 3 4 4 5 4 4 5 5 6 6 6 7 7 7 7 8 8
1 4 6 10 11 9 9 12 10 10 11 12 14 16 16 10 2 2 3 2 2 2 3 3 3 3 4 5 5 5 5 5 5 6 6 7 8 8 8 8 8 8 8 9
1 2 2 6 7 8 13 17 15 14 14 15 17 19 5 4 5 4 4 3 4 4 4 4 4 5 5 5 5 5 6 6 6 7 8 8 8 9 10 10 10 11 10 10
3 3 2 5 2 3 13 15 15 13 12 12 14 7 4 2 2 2 2 4 6 6 5 5 6 6 6 6 6 6 7 6 6 7 9 9 10 11 13 12 12 13 12 11
5 6 4 3 1 10 13 3 4 5 7 5 2 2 4 1 1 2 5 6 5 4 5 6 6 6 6 6 6 6 6 6 7 9 10 10 11 13 13 13 14 14 12 12
7 7 5 4 6 11 9 6 4 4 6 3 3 4 2 1 4 5 4 3 4 6 7 6 6 7 6 6 5 6 7 8 9 10 10 10 10 12 12 14 15 14 12 14
4 6 5 6 7 10 7 2 4 3 6 4 5 5 2 2 4 6 5 6 7 7 6 6 6 6 6 6 7 9 10 10 10 10 10 11 10 11 13 15 15 14 13 15
5 5 9 10 9 10 6 6 6 4 8 4 5 4 5 6 7 8 7 7 7 6 5 5 6 6 7 7 9 11 11 11 11 12 13 13 12 13 14 15 15 15 16 18
10 8 9 7 8 11 5 8 7 7 4 5 5 6 7 8 8 7 7 6 5 5 5 6 7 8 8 8 9 13 13 13 13 14 15 15 14 13 13 15 16 16 16 19
8 10 7 10 10 5 8 8 8 5 5 6 6 7 7 7 8 7 6 5 5 5 6 6 6 10 9 7 8 12 15 15 15 13 14 14 15 13 13 14 17 16 14 15
7 7 5 4 7 7 7 7 8 8 8 8 7 6 5 6 6 6 5 5 5 5 6 6 8 11 11 8 9 9 13 14 12 14 16 15 15 15 13 12 13 13 13 14
8 5 6 9 9 9 11 11 10 9 8 7 5 4 3 4 5 4 4 4 5 7 7 7 9 12 13 12 11 10 11 11 14 15 16 16 15 15 14 13 12 15 15 17
12 11 10 10 9 9 9 8 8 7 7 5 4 4 2 1 3 3 3 4 5 7 8 9 10 12 12 12 13 11 9 10 14 16 15 13 13 13 14 15 15 23 26 32
Wind_Direction
181 212 215 219 222 241 280 292 290 290 293 288 283 285 292 283 277 275 278 299 66 72 62 52 45 37 34 31 30 30 36 47 77 87 99 114 258 261 246 211 197 191 185 187
165 230 239 251 266 277 281 284 285 286 289 302 299 292 280 265 260 264 279 63 82 75 60 49 43 37 33 31 29 30 28 30 38 57 75 75 45 8 321 246 217 208 197 191
220 239 293 256 256 262 262 265 278 295 318 291 283 279 259 276 252 22 68 75 71 69 61 51 43 37 32 30 27 31 29 28 25 29 40 41 36 13 353 333 297 237 213 205
242 256 280 247 249 255 272 278 303 315 318 288 324 296 251 262 169 83 77 74 70 66 61 54 46 39 34 27 23 30 31 32 27 26 30 32 26 0 333 323 303 269 224 215
243 162 188 234 246 241 256 4 304 277 267 271 248 253 262 210 113 94 87 82 76 70 65 58 49 42 35 26 23 25 32 33 29 29 30 28 21 2 345 343 333 317 272 231
265 133 214 238 59 42 336 312 268 243 225 264 240 228 285 97 132 126 105 91 82 74 67 62 55 47 37 27 26 26 29 31 26 28 29 27 18 4 358 353 341 328 306 270
231 197 201 182 187 165 191 217 322 309 217 230 34 291 265 105 129 130 119 101 85 77 70 62 53 49 41 32 27 27 29 28 23 24 24 22 15 7 5 355 343 337 329 317
268 238 174 181 211 185 182 197 199 241 254 293 342 260 267 102 95 100 100 96 89 81 78 72 65 60 54 44 35 30 32 30 23 20 14 13 13 7 359 353 346 340 332 322
238 237 105 128 75 29 192 210 204 228 275 278 253 239 117 115 110 105 100 95 91 88 85 81 74 65 55 48 43 37 37 35 25 18 10 8 7 3 354 347 343 339 335 331
242 269 241 122 128 221 244 31 90 174 228 244 253 250 241 152 134 116 107 103 97 88 81 77 67 59 53 45 36 38 39 36 24 16 9 359 355 353 345 339 339 338 333 330
106 232 257 195 203 208 177 179 197 217 222 231 253 258 66 115 128 128 123 118 110 92 77 67 57 47 42 31 22 20 19 21 14 4 351 338 336 335 331 327 327 327 323 324
169 200 252 249 245 249 237 222 210 223 234 230 247 254 76 104 116 131 142 141 135 129 75 52 38 31 22 14 3 358 356 356 348 338 330 321 319 319 316 312 313 315 314 313
159 177 252 289 244 184 224 274 259 272 269 246 253 254 136 137 155 165 164 161 161 167 336 337 349 5 351 338 328 322 319 316 314 316 314 310 308 307 304 304 305 304 302 301
125 202 202 220 239 316 285 258 230 214 242 255 250 271 280 275 262 187 149 139 135 294 286 280 277 280 283 280 278 282 285 286 289 294 295 294 291 289 289 291 291 290 290 290
127 240 249 265 280 295 288 277 266 253 250 255 267 273 279 295 313 94 94 65 356 319 316 315 302 280 271 270 268 267 270 272 271 272 274 276 280 284 283 281 280 279 277 277
165 251 304 275 269 277 273 265 262 262 259 260 266 269 292 74 69 59 39 3 322 307 305 307 304 295 283 276 272 272 270 267 263 262 264 268 273 276 277 278 278 278 276 274
165 168 190 260 297 301 259 246 244 242 239 247 259 263 103 91 60 26 338 298 283 283 293 301 299 295 292 286 282 276 271 271 268 263 264 266 267 270 272 274 275 276 277 277
182 173 194 244 87 234 240 216 221 247 260 264 263 160 156 152 312 295 272 271 282 302 305 299 295 294 291 287 288 290 291 288 280 275 271 269 267 267 269 269 270 271 274 276
199 175 184 193 230 261 272 250 200 219 258 234 195 166 147 339 322 290 283 312 309 297 291 288 287 289 296 305 315 315 303 293 287 286 287 289 289 288 285 280 279 279 279 278
197 193 190 199 216 235 234 124 79 66 270 221 162 160 192 312 293 281 301 304 295 288 285 291 302 314 323 330 335 321 308 304 302 307 311 314 315 312 308 302 299 295 288 283
157 189 208 218 229 248 241 148 119 184 245 176 151 187 225 241 241 263 282 282 281 287 301 327 336 327 326 339 339 321 313 313 323 327 323 321 322 317 310 306 304 303 298 293
174 183 199 196 217 243 177 143 184 211 174 184 207 227 242 254 264 273 279 285 299 314 331 346 336 322 331 345 338 320 314 321 325 324 321 318 313 308 304 299 296 294 292 289
205 201 193 193 210 213 173 189 213 207 220 237 245 254 255 263 271 279 289 302 315 331 338 344 337 320 321 337 337 318 316 321 320 318 312 307 303 299 296 293 293 291 286 283
229 224 222 235 244 243 229 230 234 238 246 255 256 258 260 265 276 288 298 309 323 332 335 340 330 315 313 324 323 312 315 318 314 308 306 303 301 297 292 288 287 285 284 282
221 208 210 228 239 255 254 250 250 253 251 250 249 238 243 263 275 287 299 314 323 324 331 327 316 309 309 315 313 314 314 312 307 304 303 301 297 295 293 288 282 283 276 274
229 228 228 234 227 227 239 237 231 232 234 227 222 229 204 219 279 308 307 325 327 319 320 314 308 305 307 310 308 309 306 303 302 304 303 300 298 295 293 292 290 285 285 286